Regional Weather Roundup
Issued by NWS Northern Indiana

Home | Current Version | Previous Version | Graphics & Text | Print | Product List | Glossary On
Versions: 1 2 3 4 5 6 7 8 9 10 11 12 13 14 15 16 17 18 19 20 21 22 23 24 25 26 27 28 29 30 31 32 33 34 35 36 37 38 39 40 41 42 43 44 45 46 47 48 49 50
000
ASUS43 KIWX 162100
RWRIWX

KIWX WEATHER ROUNDUP
NATIONAL WEATHER SERVICE NORTHERN INDIANA
500 PM EDT MON OCT 16 2017

NOTE: "FAIR" INDICATES FEW OR NO CLOUDS BELOW 12,000 FEET WITH NO
SIGNIFICANT WEATHER AND/OR OBSTRUCTIONS TO VISIBILITY.

* THESE STATIONS ARE NOT UNDER NWS QUALITY CONTROL. THEY ALSO MAY NOT
  REPORT WEATHER SUCH AS PRECIPITATION OR FOG.

INZ001>027-162200-
NORTHERN INDIANA

CITY           SKY/WX    TMP DP  RH WIND       PRES   REMARKS
GARY*          MOSUNNY   63  32  31 W14       30.25F
SOUTH BEND     SUNNY     59  36  42 W6        30.27S
ELKHART*       MOSUNNY   59  36  41 W7        30.26F
GOSHEN         SUNNY     58  35  42 NW7       30.26F
MONTICELLO*    MOSUNNY   61  33  34 W8        30.27S
FORT WAYNE     MOSUNNY   60  34  37 NW9       30.28S
PERU/GRISSOM   SUNNY     60  35  39 NW8       30.27F

$$
INZ028>050-162200-
CENTRAL INDIANA

CITY           SKY/WX    TMP DP  RH WIND       PRES   REMARKS
LAFAYETTE      PTSUNNY   61  38  42 W8        30.28F
KOKOMO*        MOSUNNY   60  36  40 NW7       30.29F
MUNCIE*        CLOUDY    62  35  36 N9        30.28F
INDIANAPOLIS   MOSUNNY   62  35  36 N7        30.30F

$$
MIZ043>046-050>051-056>058-064>065-071>073-077>080-162200-
SOUTHWEST LOWER MICHIGAN

CITY           SKY/WX    TMP DP  RH WIND       PRES   REMARKS
BATTLE CREEK   MOSUNNY   58  38  47 NW9       30.25F
BENTON HARBOR  SUNNY     57  38  48 W13       30.26S
COLDWATER*     MOSUNNY   54  39  57 W6        30.26S
HILLSDALE*     CLOUDY    54  39  58 W7        30.25S
HOLLAND        MOSUNNY   57  39  51 W10       30.25F
GRAND RAPIDS   MOSUNNY   58  39  49 W10       30.24S
STURGIS*       MOSUNNY   57  38  50 NW6       30.25F
THREE RIVERS*  FAIR      60  38  44 W8        30.26F

$$
OHZ001>008-015>018-024>025-162200-
NORTHWEST OHIO

CITY           SKY/WX    TMP DP  RH WIND       PRES   REMARKS
DEFIANCE       CLOUDY    57  39  51 CALM      30.27S
FINDLAY        PTSUNNY   59  38  45 NW5       30.26F
TOLEDO EXPRESS CLOUDY    57  40  52 NW6       30.26S
TOLEDO METCALF CLOUDY    57  38  48 W8        30.27S
LIMA           PTSUNNY   55  39  54 CALM      30.27F

$$
AND FOR LAKE MICHIGAN COASTAL AND OPEN LAKE BUOY OBSERVATIONS

STATION/POSITION TEMP    WIND        PRES    VSBY  WAVE
                 AIR SEA DIR/SP/G                  HT/PER
                 (F)     (DEG/KT/KT) (MB)    (MI)  (FT/S)
CALUMET HARBOR    62     290/  8/ 14 1023.3F
MICHIGAN CITY     59     260/  4/  4   N/A
BURNS HARBOR      60     270/  7/  9 1024.7F
SAINT JOSEPH      57     220/  7/  9 1025.7
SOUTH LAKE BUOY   55 62  230/ 10/ 14 1024.6          2/ 3
4 MI NW BRIDGMAN  56 55  210/  4/  6 1025.2F         2/ 4
MICHIGAN CITY     58 58  270/  2/  4   N/A           2/ 6

$$
&&



USA.gov is the U.S. government's official web portal to all federal, state and local government web resources and services.